Location: Unspecified
(53.6186°N, 1.3184°W)
Time: 14:15:14
(UTC+01:00)

ISS - Pass Details

Date: 15 October 2017
Orbit: 401 x 408 km, 51.6° (Epoch: 18 October)

Event Time Altitude Azimuth Distance (km) Brightness Sun altitude
Rises 18:55:23 0° 276° (W) 2,325 2.1 -7.7°
Reaches altitude 10° 18:58:07 10° 252° (WSW) 1,463 0.5 -8.1°
Maximum altitude 19:00:01 15° 216° (SW) 1,215 -0.8 -8.4°
Drops below altitude 10° 19:01:55 10° 181° (S) 1,460 -1.0 -8.7°
Sets 19:04:39 0° 156° (SSE) 2,317 -0.2 -9.1°
